Time,TemperatureF,DewpointF,PressureIn,WindDirection,WindDirectionDegrees,WindSpeedMPH,WindSpeedGustMPH,Humidity,HourlyPrecipIn,Conditions,Clouds,dailyrainin,SoftwareType,DateUTC
2017-07-23 00:02:00,79.2,72.1,29.88,ESE,113,8.0,13.0,79,0.53,,,0.12,Wunderground v.1.13,2017-07-23 04:02:00,
2017-07-23 00:08:00,77.6,70.6,29.88,SSE,157,24.0,102.0,79,2.10,,,0.21,Wunderground v.1.13,2017-07-23 04:08:00,
2017-07-23 00:14:00,76.5,70.2,29.85,SW,230,50.0,52.0,81,0.24,,,0.28,Wunderground v.1.13,2017-07-23 04:14:00,
2017-07-23 00:20:00,75.8,69.9,29.85,ESE,116,23.0,33.0,82,0.14,,,0.29,Wunderground v.1.13,2017-07-23 04:20:00,
2017-07-23 00:26:00,75.4,69.5,29.85,ESE,123,4.0,6.0,82,0.11,,,0.30,Wunderground v.1.13,2017-07-23 04:26:00,
2017-07-23 00:32:00,75.3,69.8,29.83,ESE,120,1.0,6.0,83,0.05,,,0.30,Wunderground v.1.13,2017-07-23 04:32:00,
2017-07-23 00:38:00,75.1,69.6,29.83,ESE,121,0.0,6.0,83,0.00,,,0.30,Wunderground v.1.13,2017-07-23 04:38:00,
2017-07-23 00:44:00,75.1,69.9,29.82,ESE,123,0.0,6.0,84,0.00,,,0.31,Wunderground v.1.13,2017-07-23 04:44:00,
2017-07-23 00:50:00,75.1,69.9,29.82,ESE,120,0.0,6.0,84,0.00,,,0.31,Wunderground v.1.13,2017-07-23 04:50:00,
2017-07-23 00:56:00,74.9,69.7,29.82,ESE,120,0.0,6.0,84,0.00,,,0.31,Wunderground v.1.13,2017-07-23 04:56:00,
2017-07-23 01:02:00,74.9,70.1,29.82,ESE,123,0.0,6.0,85,0.00,,,0.31,Wunderground v.1.13,2017-07-23 05:02:00,
2017-07-23 01:08:00,74.9,70.4,29.82,ESE,120,0.0,6.0,86,0.00,,,0.31,Wunderground v.1.13,2017-07-23 05:08:00,
2017-07-23 01:14:00,75.1,70.6,29.85,ESE,119,0.0,6.0,86,0.00,,,0.31,Wunderground v.1.13,2017-07-23 05:14:00,
2017-07-23 01:20:00,75.6,71.1,29.85,ESE,109,1.0,6.0,86,0.00,,,0.31,Wunderground v.1.13,2017-07-23 05:20:00,
2017-07-23 01:26:00,76.1,71.3,29.85,ESE,106,2.0,6.0,85,0.00,,,0.31,Wunderground v.1.13,2017-07-23 05:26:00,
2017-07-23 01:32:00,76.7,71.1,29.82,ESE,106,2.0,6.0,83,0.00,,,0.31,Wunderground v.1.13,2017-07-23 05:32:00,
2017-07-23 01:38:00,76.7,71.1,29.82,ESE,104,2.0,6.0,83,0.00,,,0.31,Wunderground v.1.13,2017-07-23 05:38:00,
2017-07-23 01:44:00,76.7,71.1,29.83,ESE,103,1.0,6.0,83,0.00,,,0.31,Wunderground v.1.13,2017-07-23 05:44:00,
2017-07-23 01:50:00,76.8,71.6,29.83,NE,52,2.0,6.0,84,0.00,,,0.31,Wunderground v.1.13,2017-07-23 05:50:00,
2017-07-23 01:56:00,76.8,71.2,29.83,North,8,2.0,6.0,83,0.00,,,0.31,Wunderground v.1.13,2017-07-23 05:56:00,
2017-07-23 02:02:00,76.5,70.9,29.83,North,11,0.0,6.0,83,0.00,,,0.31,Wunderground v.1.13,2017-07-23 06:02:00,
2017-07-23 02:08:00,76.5,70.9,29.83,NNE,14,0.0,6.0,83,0.00,,,0.31,Wunderground v.1.13,2017-07-23 06:08:00,
2017-07-23 02:14:00,76.3,71.1,29.83,NNE,18,0.0,6.0,84,0.00,,,0.31,Wunderground v.1.13,2017-07-23 06:14:00,
2017-07-23 02:20:00,76.1,70.9,29.83,NNE,20,0.0,6.0,84,0.20,,,0.33,Wunderground v.1.13,2017-07-23 06:20:00,
2017-07-23 02:26:00,75.8,70.6,29.83,ENE,71,2.0,6.0,84,0.10,,,0.34,Wunderground v.1.13,2017-07-23 06:26:00,
2017-07-23 02:32:00,75.6,70.8,29.83,East,79,3.0,6.0,85,0.07,,,0.34,Wunderground v.1.13,2017-07-23 06:32:00,
2017-07-23 02:38:00,75.8,71.0,29.83,ENE,75,1.0,6.0,85,0.04,,,0.34,Wunderground v.1.13,2017-07-23 06:38:00,
2017-07-23 02:44:00,75.8,70.6,29.82,NE,48,1.0,6.0,84,0.04,,,0.35,Wunderground v.1.13,2017-07-23 06:44:00,
2017-07-23 02:50:00,75.4,70.6,29.82,NE,45,1.0,6.0,85,0.04,,,0.35,Wunderground v.1.13,2017-07-23 06:50:00,
2017-07-23 02:56:00,75.3,70.8,29.82,NNE,23,1.0,6.0,86,0.04,,,0.35,Wunderground v.1.13,2017-07-23 06:56:00,
2017-07-23 03:02:00,75.1,70.6,29.81,North,4,1.0,6.0,86,0.00,,,0.35,Wunderground v.1.13,2017-07-23 07:02:00,
2017-07-23 03:08:00,74.7,70.2,29.81,North,1,1.0,6.0,86,0.00,,,0.35,Wunderground v.1.13,2017-07-23 07:08:00,
2017-07-23 03:14:00,74.4,69.9,29.82,North,0,1.0,6.0,86,0.00,,,0.35,Wunderground v.1.13,2017-07-23 07:14:00,
2017-07-23 03:20:00,74.2,70.1,29.82,North,0,1.0,6.0,87,0.00,,,0.35,Wunderground v.1.13,2017-07-23 07:20:00,
2017-07-23 03:26:00,74.0,69.9,29.82,North,1,1.0,6.0,87,0.00,,,0.35,Wunderground v.1.13,2017-07-23 07:26:00,
2017-07-23 03:32:00,74.0,69.9,29.81,NNE,20,1.0,6.0,87,0.00,,,0.35,Wunderground v.1.13,2017-07-23 07:32:00,
2017-07-23 03:38:00,74.0,69.9,29.81,NE,35,2.0,5.0,87,0.00,,,0.35,Wunderground v.1.13,2017-07-23 07:38:00,
2017-07-23 03:44:00,74.0,69.9,29.81,NE,35,2.0,6.0,87,0.00,,,0.35,Wunderground v.1.13,2017-07-23 07:44:00,
2017-07-23 03:50:00,73.9,69.8,29.81,NE,35,1.0,2.0,87,0.00,,,0.35,Wunderground v.1.13,2017-07-23 07:50:00,
2017-07-23 03:56:00,74.0,69.9,29.81,NE,35,24.0,112.0,87,0.00,,,0.36,Wunderground v.1.13,2017-07-23 07:56:00,
2017-07-23 04:02:00,74.0,69.5,29.80,NE,34,84.0,101.0,86,0.00,,,0.36,Wunderground v.1.13,2017-07-23 08:02:00,
2017-07-23 04:08:00,74.0,69.9,29.80,NE,35,87.0,100.0,87,0.00,,,0.36,Wunderground v.1.13,2017-07-23 08:08:00,
2017-07-23 04:14:00,74.0,69.9,29.80,ESE,117,85.0,112.0,87,0.00,,,0.36,Wunderground v.1.13,2017-07-23 08:14:00,
2017-07-23 04:20:00,74.2,70.1,29.80,NE,52,101.0,112.0,87,0.00,,,0.37,Wunderground v.1.13,2017-07-23 08:20:00,
2017-07-23 04:26:00,74.4,70.3,29.80,ESE,119,101.0,101.0,87,0.00,,,0.37,Wunderground v.1.13,2017-07-23 08:26:00,
2017-07-23 04:32:00,74.4,69.9,29.79,NE,56,85.0,99.0,86,0.00,,,0.37,Wunderground v.1.13,2017-07-23 08:32:00,
2017-07-23 04:38:00,74.2,69.7,29.79,ESE,103,88.0,112.0,86,0.18,,,0.39,Wunderground v.1.13,2017-07-23 08:38:00,
2017-07-23 04:44:00,74.2,69.7,29.81,ESE,110,102.0,112.0,86,0.09,,,0.39,Wunderground v.1.13,2017-07-23 08:44:00,
2017-07-23 04:50:00,74.0,69.9,29.81,ESE,110,105.0,112.0,87,0.05,,,0.39,Wunderground v.1.13,2017-07-23 08:50:00,
2017-07-23 04:56:00,74.0,69.9,29.81,East,100,108.0,112.0,87,0.00,,,0.39,Wunderground v.1.13,2017-07-23 08:56:00,
2017-07-23 05:02:00,73.9,69.8,29.81,ESE,109,100.0,102.0,87,0.00,,,0.39,Wunderground v.1.13,2017-07-23 09:02:00,
2017-07-23 05:08:00,73.9,69.8,29.81,ESE,120,90.0,99.0,87,0.00,,,0.39,Wunderground v.1.13,2017-07-23 09:08:00,
2017-07-23 05:14:00,73.9,69.8,29.82,ESE,121,92.0,95.0,87,0.00,,,0.39,Wunderground v.1.13,2017-07-23 09:14:00,
2017-07-23 05:20:00,73.7,69.6,29.82,SE,131,46.0,65.0,87,0.00,,,0.39,Wunderground v.1.13,2017-07-23 09:20:00,
2017-07-23 05:26:00,73.9,70.1,29.82,SE,137,4.0,7.0,88,0.00,,,0.39,Wunderground v.1.13,2017-07-23 09:26:00,
2017-07-23 05:32:00,74.4,70.6,29.82,ESE,120,3.0,6.0,88,0.00,,,0.40,Wunderground v.1.13,2017-07-23 09:32:00,
2017-07-23 05:38:00,74.6,70.5,29.82,ESE,117,2.0,6.0,87,0.07,,,0.41,Wunderground v.1.13,2017-07-23 09:38:00,
2017-07-23 05:44:00,74.9,70.8,29.82,ESE,114,2.0,3.0,87,0.07,,,0.41,Wunderground v.1.13,2017-07-23 09:44:00,
2017-07-23 05:50:00,74.9,70.8,29.82,ESE,121,3.0,6.0,87,0.05,,,0.41,Wunderground v.1.13,2017-07-23 09:50:00,
2017-07-23 05:56:00,75.1,71.0,29.82,ESE,113,5.0,6.0,87,0.00,,,0.41,Wunderground v.1.13,2017-07-23 09:56:00,
2017-07-23 06:02:00,75.1,70.6,29.82,ESE,117,5.0,6.0,86,0.00,,,0.41,Wunderground v.1.13,2017-07-23 10:02:00,
2017-07-23 06:08:00,75.1,70.6,29.82,ESE,104,4.0,6.0,86,0.00,,,0.41,Wunderground v.1.13,2017-07-23 10:08:00,
2017-07-23 06:14:00,75.1,70.3,29.82,ESE,103,5.0,7.0,85,0.00,,,0.41,Wunderground v.1.13,2017-07-23 10:14:00,
2017-07-23 06:20:00,75.1,69.9,29.82,SE,143,5.0,6.0,84,0.00,,,0.41,Wunderground v.1.13,2017-07-23 10:20:00,
2017-07-23 06:26:00,75.1,69.9,29.82,SE,138,5.0,8.0,84,0.00,,,0.41,Wunderground v.1.13,2017-07-23 10:26:00,
2017-07-23 06:32:00,75.1,69.6,29.83,SE,138,4.0,6.0,83,0.00,,,0.41,Wunderground v.1.13,2017-07-23 10:32:00,
2017-07-23 06:38:00,75.1,69.6,29.83,ESE,120,4.0,6.0,83,0.00,,,0.41,Wunderground v.1.13,2017-07-23 10:38:00,
2017-07-23 06:44:00,75.1,69.6,29.83,ESE,104,4.0,6.0,83,0.00,,,0.41,Wunderground v.1.13,2017-07-23 10:44:00,